Home   Weather   Riffa   Past weeks

Flag for Bahrain Past Weather in Riffa, Bahrain — Yesterday and Last 2 Weeks

Now
90 °F

Sunny.


Feels Like: 86 °F
Forecast: 74 / 93 °F
Wind: 10 mph from North

Location: Bahrain International Airport

Current Time: Apr 23, 2017 at 1:23:27 pm

Latest Report: Apr 23, 2017 at 12:30 pm


Visibility: 10 mi

Pressure: 29.80 "Hg

Humidity: 22%

Dew Point: 46 °F

Location of RiffaLocation

Past Weather in Riffa — Graph

°F

Riffa Temperature Yesterday

Maximum temperature yesterday: 84 °F (at 10:30 am)
Minimum temperature yesterday: 75 °F (at 10:30 pm)
Average temperature yesterday: 80 °F

High & Low Weather Summary for the Past Weeks

 TemperatureHumidityPressure
High102 °F (Apr 14, 11:00 am)84% (Apr 12, 10:00 pm)30.01 "Hg (Apr 12, 10:00 pm)
Low73 °F (Apr 9, 5:30 am)12% (Apr 15, 11:30 am)29.71 "Hg (Apr 15, 2:30 am)
Average82 °F53%29.84 "Hg
* Reported Apr 8 12:00 pm — Apr 23 12:00 pm, Riffa, Weather by CustomWeather, © 2017

Note: Actual official high and low records may vary slightly from our data, if they occured in-between our weather recording intervals... More about our weather records

Advertising

Riffa Weather History for the Previous 24 Hours

Scroll right to see more
 ConditionsComfort  
Time TempWeatherWind HumidityBarometerVisibility
12:00 pm
Sun, Apr 23
90 °FPassing clouds.12 mph24%29.83 "HgN/A
11:30 am88 °FSunny.13 mph25%29.83 "Hg6 mi
10:30 am88 °FSunny.15 mph27%29.83 "Hg10 mi
9:30 am86 °FSunny.14 mph29%29.83 "Hg10 mi
9:00 am84 °FSunny.10 mph33%29.83 "Hg10 mi
8:30 am84 °FPassing clouds.9 mph35%29.83 "HgN/A
8:00 am82 °FSunny.10 mph37%29.83 "Hg10 mi
7:30 am82 °FPassing clouds.7 mph40%29.83 "HgN/A
7:00 am79 °FSunny.5 mph51%29.83 "Hg10 mi
6:30 am77 °FSunny.9 mph57%29.80 "Hg10 mi
6:00 am75 °FSunny.8 mph74%29.80 "Hg10 mi
5:30 am73 °FSunny.5 mph78%29.80 "Hg10 mi
5:00 am75 °FClear.7 mph78%29.77 "Hg10 mi
4:30 am75 °FClear.8 mph74%29.77 "Hg10 mi
4:00 am75 °FClear.7 mph74%29.77 "Hg10 mi
3:30 am75 °FClear.6 mph74%29.77 "Hg10 mi
3:00 am75 °FClear.6 mph69%29.77 "Hg10 mi
2:30 am75 °FClear.7 mph69%29.77 "Hg10 mi
2:00 am75 °FClear.5 mph65%29.77 "Hg10 mi
1:30 am75 °FClear.5 mph61%29.77 "Hg10 mi
1:00 am75 °FClear.2 mph61%29.77 "Hg10 mi
12:30 am75 °FClear.2 mph65%29.80 "Hg10 mi
12:00 am75 °FClear.2 mph65%29.80 "Hg10 mi
11:30 pm
Sat, Apr 22
75 °FClear.3 mph65%29.80 "Hg10 mi
11:00 pm77 °FClear.2 mph61%29.80 "Hg10 mi
10:30 pm75 °FClear.2 mph65%29.80 "Hg10 mi
9:30 pm79 °FPassing clouds.6 mph58%29.80 "HgN/A
9:00 pm77 °FClear.7 mph65%29.80 "Hg10 mi
8:30 pm77 °FClear.8 mph65%29.80 "Hg10 mi
8:00 pm79 °FClear.10 mph61%29.80 "Hg10 mi
7:30 pm79 °FClear.13 mph61%29.77 "Hg10 mi
7:00 pm79 °FClear.14 mph61%29.77 "Hg10 mi
6:30 pm79 °FClear.14 mph61%29.77 "Hg10 mi
5:30 pm81 °FSunny.17 mph58%29.77 "Hg10 mi
4:30 pm81 °FSunny.18 mph54%29.77 "Hg10 mi
4:00 pm82 °FSunny.21 mph55%29.77 "Hg10 mi
3:30 pm82 °FSunny.21 mph51%29.77 "Hg10 mi
3:00 pm82 °FSunny.20 mph55%29.77 "Hg10 mi
2:30 pm84 °FSunny.21 mph51%29.77 "Hg10 mi
2:00 pm82 °FSunny.23 mph55%29.77 "Hg10 mi
1:30 pm82 °FSunny.22 mph51%29.77 "Hg10 mi
1:00 pm82 °FSunny.23 mph51%29.77 "Hg10 mi
Weather by CustomWeather, © 2017

See weather overviewHow to use our weather pages